Regional Weather Roundup
Issued by NWS Wakefield, VA

Home | Current Version | Previous Version | Text Only | Print | Product List | Glossary Off
Versions: 1 2 3 4 5 6 7 8 9 10 11 12 13 14 15 16 17 18 19 20 21 22 23 24 25 26 27

000
ASUS41 KAKQ 240114
RWRAKQ

REGIONAL WEATHER ROUNDUP
NATIONAL WEATHER SERVICE WAKEFIELD VA
800 PM EST MON JAN 23 2017

Note: "fair" indicates few or no clouds below 12,000 feet with no
significant weather and/or obstructions to visibility. * = Denotes
station may not report precipitation (e.g., rain,snow,etc.),
thunder or fog.

VAZ042-051-052>054-056-240200-
NORTHERN VIRGINIA

CITY           SKY/WX    TMP DP  RH WIND       PRES   REMARKS
WASH NATIONAL  CLOUDY    41  38  89 NE23G30   29.48F
DULLES         LGT SNOW  38  35  89 N14       29.50F FOG
FORT BELVOIR   CLOUDY    40  36  87 NE9       29.46F
QUANTICO       CLOUDY    41  39  93 N21G28    29.47S
FREDERICKSBRG* CLOUDY    40  40 100 N9G20     29.45R FOG
STAFFORD*      RAIN      39  39 100 N16G24    29.49S
WARRENTON      LGT RAIN  39  36  89 N16       29.48S
CULPEPER*      DRIZZLE   38  37  97 N13G20    29.50S
MANASSAS*      LGT RAIN N/A N/A N/A N17       29.50F VSB 1
LEESBURG*      DRIZZLE   37  37 100 N16G22    29.53F
WINCHESTER     DRIZZLE   32  32 100 N7        29.55S
FRONT ROYAL*   CLOUDY    34  34 100 N9        29.53S
LURAY*         DRIZZLE   34  34 100 NE8       29.52S
$$

VAZ048-049-060>072-079>083-240200-
CENTRAL AND SOUTH CENTRAL VIRGINIA

CITY           SKY/WX    TMP DP  RH WIND       PRES   REMARKS
RICHMOND       CLOUDY    44  43  96 N15       29.37R FOG
CHESTERFIELD*  CLOUDY    45  28  53 N10G18    29.39R
PETERSBURG*    NOT AVBL
HANOVER        CLOUDY    42  32  67 N8G16     29.41R HAZE
TAPPAHANNOCK*  DRIZZLE   44  44 100 N9G20     29.38S
QUINTON*       CLOUDY    44  44 100 N12       29.35S FOG
CHARLOTTSVILLE CLOUDY    42  34  73 N12G21    29.48R
GORDONSVILLE*  CLOUDY    37  36  96 N10G18    29.47R FOG
ORANGE*        DRIZZLE   37  37 100 NW15      29.49R
LOUISA*        DRIZZLE   41  39  93 N14       29.44R
BUMPASS*       CLOUDY    39  39 100 N7        29.44R
FARMVILLE*     LGT RAIN  40  40  98 N9        29.43R
CREWE*         CLOUDY    41  41 100 N12G21    29.41R
FORT PICKETT*  CLOUDY    42  38  88 N12       29.39R
CHASE CITY*    CLOUDY    41  40  95 N8G17     29.41R
CLARKSVILLE*   CLOUDY    43  43 100 N10       29.41R
SOUTH HILL*    CLOUDY    43  43  99 N13       29.43R
LAWRENCEVILLE* CLOUDY    44  43  97 NW9G16    29.36S
EMPORIA*       CLOUDY    45  45 100 NW12G17   29.36R FOG
$$

VAZ088>098-240200-
SOUTHEAST VIRGINIA

CITY           SKY/WX    TMP DP  RH WIND       PRES   REMARKS
NORFOLK        CLOUDY    47  45  93 N13       29.27R FOG
VIRGINIA BEACH FOG       48  46  93 N9        29.26S VSB 3/4
NORFOLK NAVAL  LGT RAIN  48  46  93 N15G23    29.29S FOG
WEST POINT*    CLOUDY    45  44  95 N12G20    29.34F
SALUDA*        CLOUDY    45  45 100 N17G23    29.31F
NEWPORT NEWS   LGT RAIN  48  46  93 N14G22    29.29S FOG
LANGLEY AFB    LGT RAIN  47  47 100 N15G22    29.27R FOG
FORT EUSTIS    CLOUDY    48  45  91 N9        29.28R
WILLIAMSBURG*  CLOUDY    46  46 100 N7G21     29.31S
HR EXEC AP*    CLOUDY    50  46  87 N8        29.28R
FRANKLIN*      CLOUDY    47  46  95 N9        29.31R FOG
US460-WAKEFLD  CLOUDY    47  46  97 N8        29.32R FOG
$$

VAZ020-022-025-037-045-240200-
WEST CENTRAL AND SOUTHWEST VIRGINIA

CITY           SKY/WX    TMP DP  RH WIND       PRES   REMARKS
STAUNTON*      LGT RAIN  34  33  95 N13G18    29.52S WCI  25
WAYNESBORO*    CLOUDY    33  32  96 N13       29.49R WCI  24
HOT SPRINGS VA CLOUDY    27  27 100 NE8       29.39S FOG
LYNCHBURG      CLOUDY    41  36  82 N9G21     29.45R
DANVILLE       CLOUDY    43  41  93 N10       29.45R
SOUTH BOSTON*  CLOUDY    42  40  91 N13G21    29.43R
MARTINSVILLE   CLOUDY    42  40  93 N3        29.48R
ROANOKE        LGT RAIN  41  37  86 N12       29.49R
BLACKSBURG     CLOUDY    39  38  95 NE3       29.49R
DUBLIN*        CLOUDY    42  40  95 E3        29.48R
MARION*        DRIZZLE   44  43  97 CALM      29.49R
HILLSVILLE*    CLOUDY    38  38 100 CALM      29.43R
RICHLANDS*     LGT RAIN  42  42 100 NW8       29.48R VSB 1/4
WISE*          DRIZZLE   43  43 100 NW9G17    29.52R
ABINGDON*      DRIZZLE   48  45  88 NW10      29.50R
$$

MDZ021>025-VAZ099-100-240200-
SOUTHERN MARYLAND AND THE DELMARVA PENINSULA

CITY           SKY/WX    TMP DP  RH WIND       PRES   REMARKS
PATUXENT RIVER CLOUDY    43  42  97 N23G30    29.37F FOG
BAY BRIDGE APT CLOUDY    41  36  81 N15G22    29.46S
LEONARDTOWN    CLOUDY    41  39  93 N7G20     29.39F
DOVER          CLOUDY    42  42 100 N17G26    29.41F
GEORGETOWN     LGT RAIN  46  32  58 NE25G33   29.38S
EASTON         CLOUDY    45  39  81 NE21G29   29.45F
CAMBRIDGE      CLOUDY    43  39  87 NE16G24   29.37F
SALISBURY      LGT RAIN  45  44  97 NE21G28   29.34S FOG
OCEAN CITY     LGT RAIN  45  45 100 NE17G36   29.32F FOG
WALLOPS ISLAND LGT RAIN  47  47 100 NE30G37   29.28S FOG
ACCOMACK*      CLOUDY    50  49  94 NE16G23   29.26S
$$

NCZ012>017-030>032-240200-
NORTH CENTRAL AND EASTERN NORTH CAROLINA

CITY           SKY/WX    TMP DP  RH WIND       PRES   REMARKS
ROANOKE RAPIDS CLOUDY    46  46 100 NW10G17   29.35R
RALEIGH        CLOUDY    48  43  82 N9G17     29.39R
ELIZABETH CITY CLOUDY    54  52  93 N9        29.27R
AHOSKIE*       DRIZZLE   48  47  94 N9        29.33R
EDENTON*       CLOUDY    58  54  85 N12       29.28R
CURRITUCK*     CLOUDY    53  53 100 NW6       29.27R FOG
KILL DEVIL HLS NOT AVBL
MANTEO         LGT RAIN  53  52  96 CALM      29.25R
CAPE HATTERAS  CLOUDY    55  53  93 W3        29.24R FOG
TARBORO*       NOT AVBL
GOLDSBORO      CLOUDY    55  54  95 NW10      29.31R
WASHINGTON     CLOUDY    55  51  86 SW7         N/A
GREENVILLE     CLOUDY    55  52  88 N14       29.36R
NEW BERN       LGT RAIN  53  51  93 W7        29.31S
WILMINGTON     CLOUDY    52  52 100 NW5       29.34R
$$

VAZ048-240200-
ELSEWHERE

CITY           SKY/WX    TMP DP  RH WIND       PRES   REMARKS
HARRISBURG PA  CLOUDY    37  34  89 NE9       29.59S
BALTIMORE      CLOUDY    40  35  83 NE20G30   29.50S
ANNAPOLIS      CLOUDY   N/A N/A N/A N12G22    29.47F
ANDREWS AFB    LGT RAIN  38  36  93 NE21G28   29.44S FOG
PHILADELPHIA   CLOUDY    39  34  82 NE24G31   29.52F
HENDERSON NC   CLOUDY    42  39  92 N8        29.39R FOG
GREENSBORO     CLOUDY    43  42  97 N9        29.44R
ROCKY MOUNT    CLOUDY    50  47  89 N15       29.34R
$$

VAZ100-240200-
MARINE

STATION/POSITION TIME  TEMP    WIND        PRES    WAVE   SWELL
                       AIR SEA DIR/SP/G            HT/PER HT/PER
                 (UTC) (F)     (DEG/KT/KT) (MB)    (FT/S) (FT/S)
CAPE MAY NJ      0042   44 44   50/ 13/ 33  992.6F
LEWES DE         0042   45 43   50/ 32/ 39  993.9F
OCEAN-CITY-INLET 0042   45 44   40/ 11/ 21  993.6R
WACHAPREAGUE VA  0042   48 49   30/ 23/ 33  990.6R
THOMAS POINT MD  0100   41 40   30/ 27/ 31   N/A
GOOSES REEF MD   0050   42      50/ 19/ 23  996.6F
COVE POINT MD    0042   41      30/ 22/ 27  995.7F
SOLOMONS ISLAND  0042   42 42   20/ 12/ 20   N/A
BISHOPS HEAD MD  0042   44 45   30/ 20/ 27  993.4F
PINEY POINT MD   0036           50/ 14/ 18   N/A
POTOMAC MD       0050   43      20/ 19/ 25  992.9F
CAMBRIDGE MD     0042   44 43   40/ 21/ 29  994.3F
LEWISETTA VA     0042   44 45   40/ 13/ 19  993.5F
RAPPAHANNOCK LGT 0036          360/ 23/ 25  991.5F
STINGRAY PT      0050   43      10/ 23/ 27  992.6R
YORK RVR RNG VA  0042   46      20/ 23/ 26  990.4F
YORKTOWN VA      0042   47 45   10/ 18/ 21  991.4F
JAMESTOWN VA     0050   46     360/ 10/ 17   N/A
DOMINION TERM VA 0042   48      10/ 10/ 15  991.4R
CHES BAY BRIDGE  0036   46 46  360/ 18/ 23  990.7R
CAPE HENRY VA    0036   47     340/ 11/ 13   N/A
WILLOUBY STN VA  0036   47     360/ 20/ 23  991.8S
S CRANEY ISL VA  0042   48     360/ 16/ 20  990.8F
CAPE HENRY BUOY  0042      47                N/A     7/13   3/13
OFFSHORE WE BUOY 0051      48                N/A    10/12   7/12
64NM E OF VA BCH 0050   55 55  270/  6/  8  989.2F  13/11  13/11
DUCK PIER NC     0036   50 46  360/ 13/ 14  989.8R
44100 DUCK FRF   0035      49                N/A     9/12   7/12
44056 DUCK FRF   0030      47                N/A     8/12   5/12
OREGON INLET NC  0036   51 50  220/  3/  3  990.1R
HATTERAS NC      0036   57 57  320/  2/  4  989.6R
DIAMOND SHLS NC  0050   62 76  340/ 10/ 14  989.8R   7/11   7/11
CAPE LOOKOUT NC  0000   54     260/  7/  8  990.7R
$$




USA.gov is the U.S. government's official web portal to all federal, state and local government web resources and services.